User: anonymous   Login
Location: ?????
(32.7281°N, 34.9563°E)
Time: 16:13:48
(UTC+00:00)
Language:

OAO 2 Rocket - Orbit

View from above orbital plane
View from above orbital plane
View from above satellite
View from above satellite

Ground track
Ground track

The orbit data is extracted from the following two-line orbital elements,

1  3598U 68110B   21019.38620212  .00000042  00000-0  14649-4 0  9992
2  3598  34.9931 126.2281 0048695  73.0905 287.5120 14.54504852757613
Epoch (UTC): 19 January 2021 09:16:07
Eccentricity: 0.0048695
inclination: 34.9931°
perigee height: 676 km
apogee height: 745 km
right ascension of ascending node: 126.2281°
argument of perigee: 73.0905°
revolutions per day: 14.54504852
mean anomaly at epoch: 287.5120°
orbit number at epoch: 75761

The dashed part of the orbit path shows where the satellite is in the earth's shadow,  

DLR